Beckley, WV

8:11 PM EDT on October 20, 2017 (GMT -0400)
Raleigh County Memorial

Weather History for KBKW - January, 2013

Change the Weather History Date:

Friday, January 25, 2013

  Actual Average Record
Temperature  
Mean Temperature 21 °F 31 °F  
Max Temperature 29 °F 40 °F 74 °F (1950)
Min Temperature 12 °F 23 °F -15 °F (1961)
Degree Days  
Heating Degree Days 44 34  
Month to date heating degree days 747 850  
Since 1 July heating degree days 2769 2943  
Cooling Degree Days 0 0  
Month to date cooling degree days 0 0  
Year to date cooling degree days 0 0  
Moisture  
Dew Point 15 °F    
Average Humidity 73    
Maximum Humidity 92    
Minimum Humidity 53    
Precipitation  
Precipitation 0.17 in 0.09 in 0.95 in (1978)
Month to date precipitation 2.65 2.27  
Year to date precipitation 2.65 2.27  
Snow  
Snow 1.50 in - - ()
Month to date snowfall 2.3  
Since 1 September snowfall 40.5  
Snow Depth -    
Sea Level Pressure  
Sea Level Pressure 30.12 in    
Wind  
Wind Speed 9 mph (South)    
Max Wind Speed 18 mph    
Max Gust Speed 24 mph    
Visibility 4 miles    
Events Fog , Rain , Snow    
T = Trace of Precipitation, MM = Missing Value Source: NWS Daily Summary

Daily Weather History Graph

Daily Weather History Graph

Search for Another Location

Airport or City:

Trip Planner

Search our weather history database for the weather conditions in past years. The results will help you decide how hot, cold, wet, or windy it might be!

Date:

Astronomy

Jan. 25, 2013 Rise Set
Actual Time 7:33 AM EST 5:40 PM EST
Civil Twilight 7:05 AM EST 6:08 PM EST
Nautical Twilight 6:33 AM EST 6:40 PM EST
Astronomical Twilight 6:02 AM EST 7:11 PM EST
Moon 4:36 PM EST (1/25) 6:12 AM EST (1/25)
Length of Visible Light 11h 03m
Length of Day
10h 06m
Waxing Gibbous, 98% of the Moon is Illuminated
Jan 25
Waxing Gibbous
Jan 26
Full
Feb 3
Last Quarter
Feb 10
New
Feb 17
First Quarter

Hourly Weather History & Observations

Time (EST) Temp. Windchill Dew Point Humidity Pressure Visibility Wind Dir Wind Speed Gust Speed Precip Events Conditions
12:51 AM 12.9 °F - 1.9 °F 62% 30.50 in 10.0 mi Calm Calm - N/A   Clear
1:51 AM 12.2 °F 2.9 °F 1.4 °F 62% 30.29 in 10.0 mi SE 5.8 mph - N/A   Clear
2:51 AM 12.9 °F -0.2 °F 1.0 °F 59% 30.43 in 10.0 mi SE 10.4 mph 18.4 mph N/A   Clear
3:51 AM 14.0 °F 2.0 °F 1.0 °F 56% 30.39 in 10.0 mi SE 9.2 mph 16.1 mph N/A   Partly Cloudy
4:51 AM 15.1 °F 4.2 °F 1.9 °F 56% 30.37 in 10.0 mi SE 8.1 mph 20.7 mph N/A   Scattered Clouds
5:51 AM 15.1 °F 4.2 °F 1.9 °F 56% 30.37 in 10.0 mi SE 8.1 mph - N/A   Clear
6:51 AM 16.0 °F 2.9 °F 3.0 °F 57% 30.33 in 10.0 mi ESE 11.5 mph 20.7 mph N/A   Scattered Clouds
7:51 AM 17.1 °F 3.0 °F 3.0 °F 54% 30.30 in 10.0 mi SE 13.8 mph 20.7 mph N/A   Overcast
8:51 AM 17.1 °F 3.6 °F 3.0 °F 54% 30.30 in 10.0 mi SE 12.7 mph 21.9 mph N/A   Overcast
9:51 AM 18.0 °F 4.8 °F 5.0 °F 57% 30.26 in 8.0 mi SE 12.7 mph 20.7 mph 0.00 in   Overcast
9:58 AM 17.6 °F 4.3 °F 6.8 °F 63% 30.08 in 2.5 mi SE 12.7 mph 20.7 mph 0.00 in Snow Light Snow
10:08 AM 17.6 °F 3.2 °F 6.8 °F 63% 30.08 in 1.5 mi SE 15.0 mph - 0.00 in Snow Light Snow
10:31 AM 15.8 °F 2.7 °F 10.4 °F 79% 30.07 in 0.8 mi SE 11.5 mph 18.4 mph 0.01 in Snow Light Snow
10:51 AM 16.0 °F 3.6 °F 10.9 °F 81% 30.25 in 0.5 mi SE 10.4 mph 19.6 mph 0.02 in Snow Snow
11:24 AM 17.6 °F 5.7 °F 12.2 °F 79% 30.05 in 0.8 mi SE 10.4 mph 23.0 mph 0.02 in Snow Light Snow
11:51 AM 18.0 °F 6.1 °F 12.0 °F 78% 30.19 in 1.2 mi SSE 10.4 mph 16.1 mph 0.03 in Snow Light Snow
11:58 AM 17.6 °F 6.4 °F 12.2 °F 79% 30.02 in 3.0 mi SE 9.2 mph - 0.00 in Snow Light Snow
12:14 PM 17.6 °F 7.3 °F 12.2 °F 79% 30.01 in 2.5 mi SSE 8.1 mph - 0.01 in Snow Light Snow
12:25 PM 17.6 °F 10.7 °F 12.2 °F 79% 30.02 in 4.0 mi Variable 4.6 mph - 0.01 in Snow Light Snow
12:34 PM 17.6 °F 8.2 °F 14.0 °F 86% 30.01 in 1.8 mi SSE 6.9 mph - 0.01 in Rain Light Freezing Rain
12:46 PM 17.6 °F 7.3 °F 14.0 °F 86% 30.01 in 1.0 mi SSE 8.1 mph - 0.02 in Snow Light Snow
12:51 PM 18.0 °F 7.7 °F 14.0 °F 84% 30.15 in 0.8 mi SE 8.1 mph - 0.02 in Snow Light Snow
1:07 PM 17.6 °F 7.3 °F 14.0 °F 86% 29.99 in 0.8 mi SSE 8.1 mph - 0.01 in Snow Light Snow
1:15 PM 19.4 °F 6.6 °F 14.0 °F 80% 29.98 in 1.0 mi SSE 12.7 mph 17.3 mph 0.01 in Snow Light Snow
1:41 PM 19.4 °F 7.9 °F 15.8 °F 86% 29.96 in 0.5 mi SE 10.4 mph - 0.03 in Fog , Snow Light Snow
1:51 PM 19.0 °F 8.2 °F 15.1 °F 85% 30.12 in 0.5 mi SSE 9.2 mph - 0.03 in Fog , Snow Light Snow
2:13 PM 19.4 °F 7.2 °F 15.8 °F 86% 29.95 in 1.0 mi SSE 11.5 mph - 0.00 in Snow Light Snow
2:48 PM 21.2 °F 13.6 °F 17.6 °F 86% 29.94 in 1.8 mi SSE 5.8 mph - 0.01 in Snow Light Snow
2:51 PM 21.9 °F 12.5 °F 18.0 °F 85% 30.09 in 1.8 mi South 8.1 mph - 0.01 in Snow Light Snow
2:58 PM 21.2 °F 13.6 °F 19.4 °F 93% 29.94 in 0.8 mi SSE 5.8 mph - 0.00 in Snow Light Snow
3:41 PM 24.8 °F - 21.2 °F 86% 29.94 in 0.8 mi Calm Calm - 0.02 in Snow Light Snow
3:51 PM 25.0 °F - 21.9 °F 88% 30.08 in 0.8 mi Calm Calm - 0.02 in Snow Light Snow
3:58 PM 24.8 °F 20.5 °F 21.2 °F 86% 29.94 in 1.0 mi WNW 3.5 mph - 0.01 in Snow Light Snow
4:42 PM 24.8 °F 19.1 °F 23.0 °F 93% 29.94 in 1.8 mi West 4.6 mph - 0.02 in Snow Light Snow
4:44 PM 24.8 °F 19.1 °F 23.0 °F 93% 29.94 in 2.0 mi West 4.6 mph - 0.02 in Snow Light Snow
4:51 PM 26.1 °F 20.5 °F 23.0 °F 88% 30.08 in 2.0 mi WNW 4.6 mph - 0.02 in   Overcast
4:59 PM 24.8 °F 17.9 °F 21.2 °F 86% 29.95 in 1.2 mi West 5.8 mph - 0.00 in Snow Light Snow
5:47 PM 26.6 °F 16.2 °F 24.8 °F 93% 29.95 in 2.5 mi WSW 11.5 mph - 0.01 in Rain Light Freezing Rain
5:48 PM 27.0 °F 16.7 °F 25.0 °F 92% 30.08 in 2.5 mi SW 11.5 mph - 0.01 in Rain Light Freezing Rain
6:07 PM 26.6 °F 16.8 °F 24.8 °F 93% 29.96 in 3.0 mi WSW 10.4 mph - 0.00 in Rain Light Freezing Rain
6:51 PM 28.0 °F 20.0 °F 26.1 °F 92% 30.10 in 6.0 mi West 8.1 mph - 0.00 in   Overcast
7:51 PM 28.0 °F 19.3 °F 26.1 °F 92% 30.10 in 6.0 mi West 9.2 mph - N/A   Overcast
8:51 PM 28.9 °F 19.8 °F 27.0 °F 92% 30.12 in 5.0 mi WSW 10.4 mph - N/A   Overcast
9:51 PM 28.9 °F 19.8 °F 27.0 °F 92% 30.12 in 5.0 mi West 10.4 mph - 0.01 in   Overcast
10:51 PM 28.9 °F 18.2 °F 26.1 °F 89% 30.15 in 10.0 mi West 13.8 mph - 0.00 in   Overcast
11:24 PM 28.4 °F 21.2 °F 26.6 °F 93% 30.03 in 2.0 mi WNW 6.9 mph - 0.00 in Snow Light Snow
11:43 PM 28.4 °F 19.7 °F 26.6 °F 93% 30.03 in 5.0 mi WNW 9.2 mph - 0.00 in Snow Light Snow
11:51 PM 28.0 °F 20.0 °F 25.0 °F 88% 30.15 in 8.0 mi WNW 8.1 mph 17.3 mph 0.00 in   Overcast